N7QNM-13 Weather Reports


time (UTC)temp
C
wind
direction
speed
KPH
gust
KPH
rain 1hr
cm
rain 24hr
cm
rain mn
cm
humidity
%
barometer
mb
20260507183026 22 284 3.2 12.9 0.00 0.00 0.00 36 1014.4
20260507182026 22 303 6.4 19.3 0.00 0.00 0.00 36 1014.4
20260507181027 21 320 3.2 16.1 0.00 0.00 0.00 39 1014.4
20260507180027 21 294 4.8 20.9 0.00 0.00 0.00 40 1014.5
20260507175026 21 304 8.0 19.3 0.00 0.00 0.00 41 1014.6
20260507174027 21 288 6.4 16.1 0.00 0.00 0.00 41 1014.6
20260507173027 21 302 4.8 14.5 0.00 0.00 0.00 41 1014.7
20260507172027 20 292 4.8 12.9 0.00 0.00 0.00 40 1014.7
20260507171027 20 264 6.4 12.9 0.00 0.00 0.00 43 1014.8
20260507170107 19 226 4.8 11.3 0.00 0.00 0.00 43 1015.0
20260507165047 19 289 6.4 14.5 0.00 0.00 0.00 44 1015.0
20260507164027 18 301 6.4 12.9 0.00 0.00 0.00 44 1015.1
20260507163028 18 278 4.8 12.9 0.00 0.00 0.00 45 1015.1
20260507162028 18 266 4.8 9.7 0.00 0.00 0.00 46 1015.1
20260507161028 18 230 3.2 8.0 0.00 0.00 0.00 48 1015.2
20260507160028 18 251 3.2 6.4 0.00 0.00 0.00 48 1015.3
20260507155048 17 239 4.8 9.7 0.00 0.00 0.00 49 1015.2
20260507154028 17 259 9.7 16.1 0.00 0.00 0.00 49 1015.1
20260507153028 17 247 8.0 12.9 0.00 0.00 0.00 49 1015.1
20260507152029 17 264 4.8 11.3 0.00 0.00 0.00 49 1015.1
20260507151029 16 273 6.4 16.1 0.00 0.00 0.00 51 1015.0
20260507150028 16 266 11.3 14.5 0.00 0.00 0.00 50 1014.9
20260507145028 16 253 9.7 14.5 0.00 0.00 0.00 53 1014.9
20260507144050 15 262 9.7 17.7 0.00 0.00 0.00 54 1014.9
20260507143034 14 260 8.0 12.9 0.00 0.00 0.00 57 1014.8
20260507142029 13 264 8.0 12.9 0.00 0.00 0.00 69 1014.7
20260507141030 12 202 0.0 3.2 0.00 0.00 0.00 78 1014.8
20260507140049 11 0.0 0.0 0.00 0.00 0.00 79 1014.7
20260507135029 11 104 4.8 9.7 0.00 0.00 0.00 79 1014.7
20260507134030 10 98 0.0 4.8 0.00 0.00 0.00 83 1014.6
20260507133030 9 59 4.8 8.0 0.00 0.00 0.00 83 1014.4
20260507132030 8 66 1.6 6.4 0.00 0.00 0.00 84 1014.4
20260507131030 8 83 0.0 4.8 0.00 0.00 0.00 84 1014.4
20260507130030 8 90 1.6 6.4 0.00 0.00 0.00 84 1014.3
20260507125030 8 247 1.6 4.8 0.00 0.00 0.00 83 1014.1
20260507124030 8 253 3.2 6.4 0.00 0.00 0.00 83 1014.1
20260507123111 8 140 1.6 6.4 0.00 0.00 0.00 83 1014.1
20260507122030 8 68 0.0 3.2 0.00 0.00 0.00 83 1014.1
20260507121051 8 86 6.4 9.7 0.00 0.00 0.00 82 1014.1
20260507120111 8 91 1.6 6.4 0.00 0.00 0.00 81 1014.0
20260507115031 9 71 4.8 8.0 0.00 0.00 0.00 78 1014.0
20260507114031 9 55 0.0 1.6 0.00 0.00 0.00 77 1013.9
20260507113031 9 232 1.6 3.2 0.00 0.00 0.00 76 1013.8
20260507112032 9 216 0.0 1.6 0.00 0.00 0.00 76 1013.6
20260507111031 9 232 0.0 4.8 0.00 0.00 0.00 75 1013.6
20260507110031 10 108 0.0 4.8 0.00 0.00 0.00 73 1013.6
20260507105032 10 105 0.0 3.2 0.00 0.00 0.00 73 1013.6
20260507104052 11 99 0.0 1.6 0.00 0.00 0.00 72 1013.7
20260507103032 11 155 0.0 3.2 0.00 0.00 0.00 70 1013.8
20260507102032 11 212 0.0 3.2 0.00 0.00 0.00 68 1013.8
20260507101032 12 81 3.2 6.4 0.00 0.00 0.00 68 1013.7
20260507100032 12 210 0.0 3.2 0.00 0.00 0.00 65 1013.6
20260507095032 13 92 1.6 6.4 0.00 0.00 0.00 63 1013.6
20260507094052 14 63 3.2 8.0 0.00 0.00 0.00 59 1013.6
20260507093032 15 133 0.0 0.0 0.00 0.00 0.00 57 1013.6
20260507092033 16 256 4.8 8.0 0.00 0.00 0.00 55 1013.5
20260507091033 16 238 4.8 8.0 0.00 0.00 0.00 53 1013.5
20260507090033 16 210 4.8 11.3 0.00 0.00 0.00 52 1013.5
20260507085033 16 204 4.8 11.3 0.00 0.00 0.00 52 1013.4
20260507084033 16 211 3.2 8.0 0.00 0.00 0.00 52 1013.4
20260507083034 16 220 4.8 9.7 0.00 0.00 0.00 53 1013.4
20260507082033 16 205 3.2 6.4 0.00 0.00 0.00 52 1013.4
20260507081054 15 193 3.2 8.0 0.00 0.00 0.00 53 1013.4
20260507080034 16 159 6.4 8.0 0.00 0.00 0.00 53 1013.4
20260507075033 16 202 0.0 6.4 0.00 0.00 0.00 51 1013.4
20260507074034 17 198 1.6 6.4 0.00 0.00 0.00 50 1013.3
20260507073034 17 253 1.6 4.8 0.00 0.00 0.00 49 1013.4
20260507072034 17 242 0.0 4.8 0.00 0.00 0.00 48 1013.2
20260507071115 17 217 4.8 12.9 0.00 0.00 0.00 47 1013.1
20260507070054 17 213 3.2 6.4 0.00 0.00 0.00 47 1013.0
20260507065034 17 169 4.8 9.7 0.00 0.00 0.00 46 1013.0
20260507064055 18 154 1.6 6.4 0.00 0.00 0.00 44 1012.8
20260507063035 18 231 0.0 4.8 0.00 0.00 0.00 44 1012.5
20260507062035 18 245 4.8 8.0 0.00 0.00 0.00 44 1012.4
20260507061035 19 240 4.8 8.0 0.00 0.00 0.00 43 1012.5
20260507060036 20 284 0.0 4.8 0.00 0.00 0.00 40 1012.6
20260507055035 20 271 3.2 8.0 0.00 0.00 0.00 39 1012.6
20260507054035 20 229 8.0 16.1 0.00 0.00 0.00 38 1012.4
20260507053036 20 232 6.4 12.9 0.00 0.00 0.00 39 1012.5
20260507052035 20 212 3.2 8.0 0.00 0.00 0.00 39 1012.5
20260507051035 21 254 6.4 11.3 0.00 0.00 0.00 39 1012.3
20260507050056 21 248 11.3 17.7 0.00 0.00 0.00 39 1012.1
20260507045036 21 242 8.0 17.7 0.00 0.00 0.00 38 1012.1
20260507044036 21 241 9.7 12.9 0.00 0.00 0.00 39 1012.1
20260507043036 22 277 11.3 14.5 0.00 0.00 0.00 38 1012.0
20260507042037 22 261 12.9 19.3 0.00 0.00 0.00 36 1012.0
20260507041036 22 277 16.1 24.1 0.00 0.00 0.00 35 1011.8
20260507040036 22 283 16.1 22.5 0.00 0.00 0.00 35 1011.7
20260507035037 21 285 11.3 20.9 0.00 0.00 0.00 38 1011.6
20260507034038 22 266 6.4 9.7 0.00 0.00 0.00 39 1011.6
20260507033037 22 256 6.4 9.7 0.00 0.00 0.00 37 1011.5
20260507032057 23 237 4.8 9.7 0.00 0.00 0.00 36 1011.5
20260507031037 23 199 3.2 6.4 0.00 0.00 0.00 36 1011.5
20260507030037 23 220 3.2 8.0 0.00 0.00 0.00 36 1011.5
20260507025038 23 234 3.2 8.0 0.00 0.00 0.00 37 1011.4
20260507024038 23 301 4.8 9.7 0.00 0.00 0.00 36 1011.4
20260507023038 23 301 4.8 11.3 0.00 0.00 0.00 36 1011.3
20260507022038 24 306 9.7 16.1 0.00 0.00 0.00 35 1011.3
20260507021038 25 306 9.7 17.7 0.00 0.00 0.00 34 1011.2
20260507020038 25 304 16.1 24.1 0.00 0.00 0.00 34 1011.2
20260507015038 25 305 14.5 25.7 0.00 0.00 0.00 33 1011.2
20260507014039 25 303 16.1 29.0 0.00 0.00 0.00 33 1011.1
20260507013059 26 301 11.3 20.9 0.00 0.00 0.00 33 1011.2
20260507012038 26 293 19.3 32.2 0.00 0.00 0.00 32 1011.2
20260507011039 26 293 17.7 30.6 0.00 0.00 0.00 32 1011.1
20260507010038 27 292 25.7 33.8 0.00 0.00 0.00 31 1011.0
20260507005038 27 288 25.7 35.4 0.00 0.00 0.00 31 1010.8
20260507004059 27 294 20.9 40.2 0.00 0.00 0.00 32 1010.7
20260507003039 28 288 22.5 37.0 0.00 0.00 0.00 31 1010.5
20260507002039 28 280 24.1 37.0 0.00 0.00 0.00 31 1010.2
20260507001039 28 285 20.9 35.4 0.00 0.00 0.00 31 1010.0
20260507000039 29 292 19.3 30.6 0.00 0.00 0.00 31 1009.8
20260506235039 30 288 22.5 33.8 0.00 0.00 0.00 30 1009.6
20260506234040 31 275 8.0 14.5 0.00 0.00 0.00 31 1009.5
20260506233039 31 284 1.6 4.8 0.00 0.00 0.00 31 1009.5
20260506232040 31 300 6.4 16.1 0.00 0.00 0.00 31 1009.6
20260506231040 31 235 3.2 12.9 0.00 0.00 0.00 30 1009.7
20260506230040 31 322 1.6 8.0 0.00 0.00 0.00 31 1009.8
20260506225100 30 253 1.6 8.0 0.00 0.00 0.00 31 1009.9
20260506224040 30 76 1.6 9.7 0.00 0.00 0.00 32 1010.1
20260506223101 30 214 6.4 17.7 0.00 0.00 0.00 33 1010.2
20260506222040 30 226 4.8 12.9 0.00 0.00 0.00 35 1010.4
20260506221041 30 198 6.4 14.5 0.00 0.00 0.00 35 1010.4
20260506220041 30 172 3.2 17.7 0.00 0.00 0.00 34 1010.5
20260506215041 30 131 3.2 12.9 0.00 0.00 0.00 35 1010.7
20260506214041 29 158 11.3 22.5 0.00 0.00 0.00 34 1010.6
20260506213041 30 158 11.3 25.7 0.00 0.00 0.00 34 1010.7
20260506212101 29 175 12.9 19.3 0.00 0.00 0.00 34 1010.7
20260506211041 29 138 8.0 19.3 0.00 0.00 0.00 34 1010.7
20260506210041 29 178 8.0 19.3 0.00 0.00 0.00 34 1010.8
20260506205041 30 171 12.9 25.7 0.00 0.00 0.00 34 1010.8
20260506204042 29 177 14.5 27.4 0.00 0.00 0.00 34 1010.9
20260506203042 29 167 11.3 20.9 0.00 0.00 0.00 35 1010.9
20260506202042 29 166 14.5 27.4 0.00 0.00 0.00 34 1010.9
20260506201042 28 189 12.9 25.7 0.00 0.00 0.00 35 1011.0
20260506200042 28 129 9.7 19.3 0.00 0.00 0.00 36 1011.2
20260506195042 28 166 11.3 22.5 0.00 0.00 0.00 36 1011.3
20260506194043 28 174 12.9 22.5 0.00 0.00 0.00 37 1011.5
20260506193043 27 164 16.1 25.7 0.00 0.00 0.00 37 1011.6
20260506192042 27 166 12.9 20.9 0.00 0.00 0.00 38 1011.8
20260506191043 27 179 14.5 24.1 0.00 0.00 0.00 38 1011.8
20260506190043 26 165 12.9 22.5 0.00 0.00 0.00 40 1011.9
20260506185104 26 167 12.9 22.5 0.00 0.00 0.00 43 1011.9
20260506184043 26 171 12.9 24.1 0.00 0.00 0.00 43 1011.9